Vorticity
nan nan nan nan nan nan nan nan nan nan nan nan nan nan nan nan nan nan nan nan nan nan nan nan nan nan nan nan nan nan nan nan nan nan nan nan nan nan nan nan nan nan nan nan
nan 8 8 8 11 8 9 10 8 7 6 3 14 24 14 10 9 8 7 7 8 8 9 9 9 9 9 10 12 12 12 12 10 12 11 14 10 11 13 14 16 16 13 nan
nan 10 11 16 14 19 15 8 12 8 8 9 28 19 9 11 10 10 8 8 9 9 9 10 9 10 11 11 12 12 10 10 12 12 11 11 11 9 11 10 12 14 14 nan
nan 9 9 9 12 15 13 12 14 10 8 18 22 15 11 10 11 9 9 9 10 10 9 10 10 10 11 11 11 12 11 9 10 11 12 13 14 10 10 8 11 12 10 nan
nan 7 10 8 4 7 12 9 7 10 16 17 6 -2 2 8 9 9 10 10 9 10 10 10 9 11 11 10 10 10 11 11 11 11 11 10 10 13 12 11 9 10 14 nan
nan 10 9 3 5 15 13 9 3 13 18 16 8 2 4 6 9 9 10 10 10 11 10 9 9 10 10 9 10 9 10 11 11 12 11 11 11 12 14 12 9 9 8 nan
nan 8 10 2 10 17 10 8 10 13 24 25 12 16 12 7 8 9 9 11 11 10 11 11 11 9 9 9 8 11 11 11 11 11 11 11 12 11 11 11 9 9 7 nan
nan 14 1 11 20 8 14 13 12 11 16 21 13 10 8 8 8 10 10 11 12 10 9 9 12 13 10 10 11 11 11 10 11 12 12 10 11 11 11 10 9 9 9 nan
nan 17 12 12 14 14 15 14 12 11 10 9 7 6 8 9 9 9 11 11 11 11 9 9 9 10 11 11 13 11 10 10 11 11 13 12 10 12 12 10 10 10 11 nan
nan 8 11 10 9 12 14 12 11 11 11 11 10 9 9 10 10 9 9 10 10 9 9 10 10 10 10 12 11 11 11 10 10 9 9 12 15 11 11 13 13 10 11 nan
nan 13 8 9 11 10 10 10 10 11 12 11 10 10 10 8 8 9 10 9 10 10 9 8 10 9 10 12 13 12 10 10 10 10 9 9 7 11 16 14 18 18 15 nan
nan 10 11 16 13 11 10 10 10 11 9 10 10 10 9 8 9 9 9 10 10 10 9 8 9 8 8 10 13 13 13 11 10 11 9 9 10 3 1 8 14 15 17 nan
nan 14 15 11 10 12 12 11 10 9 10 9 9 9 9 9 9 10 9 9 10 9 9 9 9 8 7 9 11 11 12 14 12 10 11 10 10 9 7 2 -6 -0 10 nan
nan 8 11 10 10 12 9 10 10 9 10 10 10 9 10 10 8 7 8 9 9 9 10 10 9 8 9 10 11 12 10 11 12 10 11 11 11 12 10 7 4 4 2 nan
nan 9 16 13 11 10 10 9 8 8 9 8 10 12 11 10 9 9 10 11 9 7 8 9 9 8 11 12 10 10 11 11 11 11 10 10 11 10 10 11 11 11 8 nan
nan 17 11 8 8 9 9 9 9 9 10 10 10 10 10 10 9 8 7 9 11 8 8 10 8 9 11 13 11 12 9 9 12 11 10 11 11 11 11 11 10 10 10 nan
nan 8 7 8 9 9 9 11 11 11 11 11 11 9 8 8 8 8 8 8 9 9 9 9 9 11 12 12 13 12 10 8 10 12 10 10 10 11 11 11 11 11 9 nan
nan 14 12 12 10 10 10 11 12 11 10 9 10 10 9 8 9 8 9 12 10 6 8 9 11 12 11 11 14 13 11 10 11 11 10 9 11 11 10 11 10 11 11 nan
nan 16 14 14 13 12 11 9 10 10 10 11 9 8 9 10 10 8 9 12 10 7 7 10 11 13 9 11 14 14 10 11 12 11 12 11 11 10 11 11 10 10 10 nan
nan 13 14 12 13 13 10 10 10 9 11 10 10 11 9 9 9 8 7 9 11 11 8 10 13 11 11 9 13 13 11 12 12 12 11 11 12 12 12 10 9 11 10 nan
nan 10 10 9 10 12 12 11 11 9 10 12 11 8 8 11 10 11 9 7 12 9 10 10 11 12 10 7 13 11 11 12 12 11 11 12 11 11 11 11 12 11 10 nan
nan 10 11 10 9 10 11 11 11 12 11 8 9 11 10 10 10 8 7 12 12 10 8 11 10 9 8 10 11 10 10 10 11 11 11 11 11 12 12 11 11 11 12 nan
nan 12 11 11 11 8 10 11 11 10 10 10 10 8 5 7 11 11 16 14 8 9 8 11 10 7 8 11 8 9 9 9 9 10 10 11 10 11 11 12 12 12 11 nan
nan 11 9 11 12 10 10 10 10 9 9 11 11 10 9 11 11 11 11 10 12 8 8 13 10 10 9 11 10 10 10 10 11 10 10 10 9 10 10 11 11 11 13 nan
nan 10 11 10 8 9 11 10 10 11 10 11 12 12 10 10 11 13 13 12 12 9 13 12 10 12 11 10 11 12 12 12 11 13 14 11 10 10 10 10 10 9 10 nan
nan 8 11 10 10 11 10 9 9 12 12 12 11 11 12 11 13 12 14 14 13 13 12 9 12 13 12 11 12 12 13 14 15 15 16 16 14 14 13 12 12 12 10 nan
nan nan nan nan nan nan nan nan nan nan nan nan nan nan nan nan nan nan nan nan nan nan nan nan nan nan nan nan nan nan nan nan nan nan nan nan nan nan nan nan nan nan nan nan
CAPE
0 0 0 0 0 0 0 0 0 0 0 0 1 18 13 5 4 1 3 4 6 5 3 4 3 4 3 2 6 11 4 1 8 7 4 3 2 3 3 3 17 11 0 0
0 0 0 0 0 0 0 0 0 0 0 35 6 16 2 8 3 5 6 8 6 7 4 9 5 6 3 5 7 7 4 7 4 4 8 7 2 1 2 2 1 0 1 0
0 0 0 0 0 0 0 0 14 23 24 10 13 9 2 8 5 9 9 10 10 10 12 10 9 9 9 10 7 4 4 6 2 1 3 4 3 0 0 1 1 3 2 1
0 0 0 9 10 7 3 5 8 7 9 12 8 11 14 12 11 13 11 11 8 12 12 10 8 7 6 4 5 7 5 4 5 4 3 2 4 2 0 0 0 0 1 2
5 4 0 6 2 4 6 8 7 6 6 3 9 11 14 13 12 13 11 18 16 17 12 10 10 8 5 5 4 5 12 11 7 5 3 2 2 2 0 0 0 2 1 1
8 13 8 17 2 4 8 13 3 7 8 24 16 43 14 11 12 11 15 14 18 20 16 9 12 8 7 8 8 14 12 11 12 13 7 5 5 2 3 2 2 1 0 3
20 20 14 2 2 0 18 15 4 7 10 11 4 10 10 8 8 12 16 16 17 12 9 17 22 12 14 11 10 12 15 14 13 13 12 11 12 9 9 6 2 1 0 1
13 14 20 2 3 9 12 13 9 10 11 9 8 7 6 5 5 8 12 13 8 8 8 8 7 8 15 10 13 13 14 14 14 14 15 14 11 12 8 7 9 8 3 2
8 16 8 6 7 8 13 13 13 7 6 5 3 3 3 5 5 8 12 5 4 6 6 7 6 7 9 6 11 15 13 13 15 17 15 15 13 12 19 12 16 15 15 9
8 12 10 10 5 9 11 8 8 7 7 4 2 4 4 5 7 8 9 7 5 4 6 8 7 7 6 5 1 1 5 5 6 14 15 19 13 15 11 15 18 14 15 17
12 15 11 11 13 10 9 8 6 8 6 5 6 10 7 8 9 10 9 8 5 7 7 6 4 3 5 4 5 2 0 5 6 5 6 9 11 13 21 20 12 19 19 16
9 7 14 12 14 11 9 8 7 2 4 5 5 7 7 9 8 7 7 5 4 5 7 8 4 3 5 4 1 1 0 0 2 7 8 8 8 10 5 6 6 5 4 11
10 11 8 13 11 8 6 7 6 5 4 4 4 4 5 6 6 4 4 3 4 5 5 4 2 2 3 8 9 9 7 4 3 2 5 8 9 9 12 4 0 2 6 5
9 7 10 6 7 4 2 4 4 4 4 4 2 2 2 1 1 0 1 1 0 2 2 2 1 1 1 3 3 8 16 7 19 18 17 17 17 19 15 12 10 12 2 3
11 8 4 3 2 2 1 2 3 3 3 1 0 0 0 0 0 0 0 0 0 0 0 1 0 1 2 2 6 7 13 19 20 21 16 12 16 16 14 13 12 12 12 4
7 8 3 2 2 3 1 1 1 1 0 0 0 0 0 0 0 0 0 0 0 0 0 0 0 0 2 2 7 8 9 1 5 14 11 11 10 10 10 12 10 10 10 10
9 3 6 5 4 2 1 0 0 0 0 0 0 0 0 0 0 0 0 0 0 0 0 0 2 0 1 4 10 12 16 11 2 11 11 11 13 12 10 11 11 9 10 3
7 6 5 1 1 1 0 0 0 0 1 0 0 0 0 0 0 0 0 0 0 0 0 0 0 1 1 3 4 6 9 8 8 10 9 15 11 10 15 12 10 10 12 4
3 7 4 1 1 0 1 1 1 0 0 0 0 0 0 0 0 0 0 0 0 0 0 0 0 2 2 0 1 4 6 10 10 7 15 10 17 15 17 16 14 14 14 15
1 0 1 1 0 0 1 0 0 0 0 0 0 0 0 0 0 0 0 0 0 0 0 0 0 1 0 0 0 2 7 12 7 10 16 16 20 26 25 1 10 16 21 18
4 2 1 0 0 0 0 0 0 0 0 0 0 0 0 0 0 0 0 0 1 0 0 0 0 0 0 0 0 15 14 16 15 18 21 24 21 21 25 29 28 29 29 27
1 0 0 0 0 0 0 0 0 0 0 0 0 0 0 0 0 0 0 0 0 0 0 0 0 0 0 0 8 14 9 10 15 17 18 18 20 22 21 23 27 29 33 28
0 0 0 0 0 0 0 0 0 0 0 0 0 0 1 1 2 4 5 0 0 0 0 3 0 0 0 13 19 20 19 14 17 18 19 19 22 22 22 21 19 18 24 26
1 0 0 0 0 0 0 0 0 0 0 0 0 0 0 7 11 3 3 0 0 0 1 0 0 0 0 19 27 27 23 26 26 25 25 1 23 20 19 17 17 15 21 12
0 0 0 0 0 0 0 0 0 0 0 0 1 1 0 1 6 10 10 10 0 0 19 0 0 0 3 21 22 22 27 29 33 32 34 30 28 25 25 19 19 19 18 17
0 0 0 0 0 0 0 0 3 6 5 13 11 7 8 3 5 6 9 4 6 2 17 17 12 10 18 19 18 20 23 23 23 26 23 25 37 35 31 28 27 25 22 22
0 0 0 0 1 1 2 4 12 9 4 7 7 9 7 10 9 7 0 14 13 11 14 15 18 8 8 12 17 19 20 19 12 17 19 19 23 24 25 21 23 33 44 23